Year,Month,Day,Hour,Minute,Value (Times are PST for temperature in C)
2010,12,10,00,00,5.70
2010,12,10,00,01,5.60
2010,12,10,00,02,5.60
2010,12,10,00,03,5.60
2010,12,10,00,04,5.60
2010,12,10,00,05,5.60
2010,12,10,00,06,5.60
2010,12,10,00,07,5.60
2010,12,10,00,08,5.60
2010,12,10,00,09,5.60
2010,12,10,00,10,5.60
2010,12,10,00,11,5.60
2010,12,10,00,12,5.70
2010,12,10,00,13,5.70
2010,12,10,00,14,5.70
2010,12,10,00,15,5.70
2010,12,10,00,16,5.70
2010,12,10,00,17,5.70
2010,12,10,00,18,5.70
2010,12,10,00,19,5.70
2010,12,10,00,20,5.70
2010,12,10,00,21,5.70
2010,12,10,00,22,5.70
2010,12,10,08,34,5.60
2010,12,10,08,35,5.60
2010,12,10,08,36,5.60
2010,12,10,08,37,5.60
2010,12,10,08,38,5.70
2010,12,10,08,39,5.70
2010,12,10,08,40,5.70
2010,12,10,08,41,5.70
2010,12,10,08,42,5.70
2010,12,10,08,43,5.70
2010,12,10,08,44,5.70
2010,12,10,08,45,5.70
2010,12,10,08,46,5.60
2010,12,10,08,47,5.60
2010,12,10,08,48,5.60
2010,12,10,08,49,5.60
2010,12,10,08,50,5.60
2010,12,10,08,51,5.60
2010,12,10,08,52,5.60
2010,12,10,08,53,5.60
2010,12,10,08,54,5.60
2010,12,10,08,55,5.60
2010,12,10,08,56,5.60
2010,12,10,08,57,5.60
2010,12,10,08,58,5.60
2010,12,10,08,59,5.60
2010,12,10,09,00,5.60
2010,12,10,09,01,5.60
2010,12,10,09,02,5.60
2010,12,10,09,03,5.60
2010,12,10,09,04,5.60
2010,12,10,09,05,5.60
2010,12,10,09,06,5.60
2010,12,10,09,07,5.60
2010,12,10,09,08,5.60
2010,12,10,09,09,5.60
2010,12,10,09,10,5.60
2010,12,10,09,11,5.60
2010,12,10,09,12,5.70
2010,12,10,09,13,5.70
2010,12,10,09,14,5.70
2010,12,10,09,15,5.70
2010,12,10,09,16,5.70
2010,12,10,09,17,5.70
2010,12,10,09,18,5.70
2010,12,10,09,19,5.70
2010,12,10,09,20,5.70
2010,12,10,09,21,5.80
2010,12,10,09,22,5.80
2010,12,10,09,23,5.80
2010,12,10,09,24,5.90
2010,12,10,09,25,5.90
2010,12,10,09,26,5.90
2010,12,10,09,27,6.00
2010,12,10,09,28,6.00
2010,12,10,09,29,6.00
2010,12,10,09,30,6.00
2010,12,10,09,31,6.00
2010,12,10,09,32,6.10
2010,12,10,09,33,6.10
2010,12,10,09,34,6.10
2010,12,10,09,35,6.10
2010,12,10,09,36,6.20
2010,12,10,09,37,6.20
2010,12,10,09,38,6.30
2010,12,10,09,39,6.30
2010,12,10,09,40,6.30
2010,12,10,09,41,6.30
2010,12,10,09,42,6.30
2010,12,10,09,43,6.40
2010,12,10,09,44,6.40
2010,12,10,09,45,6.40
2010,12,10,09,46,6.40
2010,12,10,09,47,6.40
2010,12,10,09,48,6.40
2010,12,10,09,49,6.50
2010,12,10,09,50,6.60
2010,12,10,09,51,6.60
2010,12,10,09,52,6.70
2010,12,10,09,53,6.70
2010,12,10,09,54,6.70
2010,12,10,09,55,6.70
2010,12,10,09,56,6.70
2010,12,10,09,57,6.70
2010,12,10,09,58,6.70
2010,12,10,09,59,6.70
2010,12,10,10,00,6.70
2010,12,10,10,01,6.70
2010,12,10,10,02,6.80
2010,12,10,10,03,6.80
2010,12,10,10,04,6.80
2010,12,10,10,05,6.80
2010,12,10,10,06,6.90
2010,12,10,10,07,6.90
2010,12,10,10,08,6.90
2010,12,10,10,09,6.90
2010,12,10,10,10,7.00
2010,12,10,10,11,7.00
2010,12,10,10,12,7.00
2010,12,10,10,13,7.00
2010,12,10,10,14,7.00
2010,12,10,10,15,6.90
2010,12,10,10,16,6.90
2010,12,10,10,17,6.90
2010,12,10,10,18,6.90
2010,12,10,10,19,6.90
2010,12,10,10,20,6.90
2010,12,10,10,21,6.90
2010,12,10,10,22,6.90
2010,12,10,10,23,6.90
2010,12,10,10,24,7.00
2010,12,10,10,25,7.00
2010,12,10,10,26,7.00
2010,12,10,10,27,7.10
2010,12,10,10,28,7.10
2010,12,10,10,29,7.10
2010,12,10,10,30,7.10
2010,12,10,10,31,7.10
2010,12,10,10,32,7.10
2010,12,10,10,33,7.10
2010,12,10,10,34,7.00
2010,12,10,10,35,7.00
2010,12,10,10,36,7.00
2010,12,10,10,37,7.00
2010,12,10,10,38,6.90
2010,12,10,10,39,6.90
2010,12,10,10,40,6.90
2010,12,10,10,41,6.80
2010,12,10,10,42,6.80
2010,12,10,10,43,6.80
2010,12,10,10,44,6.80
2010,12,10,10,45,6.80
2010,12,10,10,46,6.80
2010,12,10,10,47,6.80
2010,12,10,10,48,6.80
2010,12,10,10,49,6.80
2010,12,10,10,50,6.80
2010,12,10,10,51,6.80
2010,12,10,10,52,6.80
2010,12,10,10,53,6.80
2010,12,10,10,54,6.80
2010,12,10,10,55,6.90
2010,12,10,10,56,6.90
2010,12,10,10,57,6.90
2010,12,10,10,58,6.90
2010,12,10,10,59,6.90
2010,12,10,11,00,7.00
2010,12,10,11,01,7.00
2010,12,10,11,02,7.00
2010,12,10,11,03,7.10
2010,12,10,11,04,7.10
2010,12,10,11,05,7.10
2010,12,10,11,06,7.10
2010,12,10,11,07,7.10
2010,12,10,11,08,7.20
2010,12,10,11,09,7.20
2010,12,10,11,10,7.20
2010,12,10,11,11,7.20
2010,12,10,11,12,7.30
2010,12,10,11,13,7.30
2010,12,10,11,14,7.30
2010,12,10,11,15,7.40
2010,12,10,11,16,7.40
2010,12,10,11,17,7.40
2010,12,10,11,18,7.40
2010,12,10,11,19,7.40
2010,12,10,11,20,7.30
2010,12,10,11,21,7.40
2010,12,10,11,22,7.40
2010,12,10,11,23,7.40
2010,12,10,11,24,7.40
2010,12,10,11,25,7.40
2010,12,10,11,26,7.30
2010,12,10,11,27,7.30
2010,12,10,11,28,7.30
2010,12,10,11,29,7.30
2010,12,10,11,30,7.40
2010,12,10,11,31,7.40
2010,12,10,11,32,7.40
2010,12,10,11,33,7.30
2010,12,10,11,34,7.30
2010,12,10,11,35,7.30
2010,12,10,11,36,7.30
2010,12,10,11,37,7.30
2010,12,10,11,38,7.30
2010,12,10,11,39,7.30
2010,12,10,11,40,7.40
2010,12,10,11,41,7.40
2010,12,10,11,42,7.40
2010,12,10,11,43,7.40
2010,12,10,11,44,7.40
2010,12,10,11,45,7.40
2010,12,10,11,46,7.50
2010,12,10,11,47,7.50
2010,12,10,11,48,7.50
2010,12,10,11,49,7.50
2010,12,10,11,50,7.50
2010,12,10,11,51,7.50
2010,12,10,11,52,7.50
2010,12,10,11,53,7.50
2010,12,10,11,54,7.50
2010,12,10,11,55,7.60
2010,12,10,11,56,7.60
2010,12,10,11,57,7.60
2010,12,10,11,58,7.60
2010,12,10,11,59,7.60
2010,12,10,12,00,7.60
2010,12,10,12,01,7.60
2010,12,10,12,02,7.60
2010,12,10,12,03,7.60
2010,12,10,12,04,7.60
2010,12,10,12,05,7.60
2010,12,10,12,06,7.60
2010,12,10,12,07,7.60
2010,12,10,12,08,7.50
2010,12,10,12,09,7.50
2010,12,10,12,10,7.40
2010,12,10,12,11,7.40
2010,12,10,12,12,7.40
2010,12,10,12,13,7.40
2010,12,10,12,14,7.50
2010,12,10,12,15,7.50
2010,12,10,12,16,7.50
2010,12,10,12,17,7.50
2010,12,10,12,18,7.50
2010,12,10,12,19,7.50
2010,12,10,12,20,7.50
2010,12,10,12,21,7.50
2010,12,10,12,22,7.60
2010,12,10,12,23,7.60
2010,12,10,12,24,7.60
2010,12,10,12,25,7.70
2010,12,10,12,26,7.80
2010,12,10,12,27,7.80
2010,12,10,12,28,7.90
2010,12,10,12,29,7.90
2010,12,10,12,30,8.00
2010,12,10,12,31,8.00
2010,12,10,12,32,8.10
2010,12,10,12,33,8.10
2010,12,10,12,34,8.10
2010,12,10,12,35,8.10
2010,12,10,12,36,8.10
2010,12,10,12,37,8.10
2010,12,10,12,38,8.00
2010,12,10,12,39,8.00
2010,12,10,12,40,8.00
2010,12,10,12,41,8.10
2010,12,10,12,42,8.10
2010,12,10,12,43,8.00
2010,12,10,12,44,8.00
2010,12,10,12,45,8.00
2010,12,10,12,46,8.00
2010,12,10,12,47,8.00
2010,12,10,12,48,8.00
2010,12,10,12,49,8.00
2010,12,10,12,50,8.00
2010,12,10,12,51,8.00
2010,12,10,12,52,8.00
2010,12,10,12,53,8.00
2010,12,10,12,54,8.00
2010,12,10,12,55,8.10
2010,12,10,12,56,8.10
2010,12,10,12,57,8.10
2010,12,10,12,58,8.20
2010,12,10,12,59,8.20
2010,12,10,13,00,8.20
2010,12,10,13,01,8.20
2010,12,10,13,02,8.20
2010,12,10,13,03,8.20
2010,12,10,13,04,8.30
2010,12,10,13,05,8.30
2010,12,10,13,06,8.30
2010,12,10,13,07,8.30
2010,12,10,13,08,8.40
2010,12,10,13,09,8.40
2010,12,10,13,10,8.40
2010,12,10,13,11,8.50
2010,12,10,13,12,8.50
2010,12,10,13,13,8.50
2010,12,10,13,14,8.50
2010,12,10,13,15,8.50
2010,12,10,13,16,8.60
2010,12,10,13,17,8.60
2010,12,10,13,18,8.60
2010,12,10,13,19,8.70
2010,12,10,13,20,8.70
2010,12,10,13,21,8.70
2010,12,10,13,22,8.70
2010,12,10,13,23,8.70
2010,12,10,13,24,8.70
2010,12,10,13,25,8.70
2010,12,10,13,26,8.70
2010,12,10,13,27,8.70
2010,12,10,13,28,8.70
2010,12,10,13,29,8.70
2010,12,10,13,30,8.70
2010,12,10,13,31,8.70
2010,12,10,13,32,8.70
2010,12,10,13,33,8.70
2010,12,10,13,34,8.70
2010,12,10,13,35,8.70
2010,12,10,13,36,8.70
2010,12,10,13,37,8.70
2010,12,10,13,38,8.70
2010,12,10,13,39,8.80
2010,12,10,13,40,8.80
2010,12,10,13,41,8.80
2010,12,10,13,42,8.80
2010,12,10,13,43,8.90
2010,12,10,13,44,8.90
2010,12,10,13,45,9.00
2010,12,10,13,46,9.00
2010,12,10,13,47,9.10
2010,12,10,13,48,9.10
2010,12,10,13,49,9.20
2010,12,10,13,50,9.20
2010,12,10,13,51,9.30
2010,12,10,13,52,9.30
2010,12,10,13,53,9.30
2010,12,10,13,54,9.30
2010,12,10,13,55,9.30
2010,12,10,13,56,9.30
2010,12,10,13,57,9.40
2010,12,10,13,58,9.30
2010,12,10,13,59,9.30
2010,12,10,14,00,9.30
2010,12,10,14,01,9.30
2010,12,10,14,02,9.30
2010,12,10,14,03,9.20
2010,12,10,14,04,9.20
2010,12,10,14,05,9.20
2010,12,10,14,06,9.20
2010,12,10,14,07,9.10
2010,12,10,14,08,9.00
2010,12,10,14,09,9.00
2010,12,10,14,10,8.90
2010,12,10,14,11,8.90
2010,12,10,14,12,8.90
2010,12,10,14,13,8.80
2010,12,10,14,14,8.70
2010,12,10,14,15,8.70
2010,12,10,14,16,8.70
2010,12,10,14,17,8.60
2010,12,10,14,18,8.60
2010,12,10,14,19,8.50
2010,12,10,14,20,8.50
2010,12,10,14,21,8.40
2010,12,10,14,22,8.30
2010,12,10,14,23,8.30
2010,12,10,14,24,8.20
2010,12,10,14,25,8.20
2010,12,10,14,26,8.20
2010,12,10,14,27,8.10
2010,12,10,14,28,8.00
2010,12,10,14,29,8.00
2010,12,10,14,30,7.90
2010,12,10,14,31,7.90
2010,12,10,14,32,7.90
2010,12,10,14,33,7.80
2010,12,10,14,34,7.80
2010,12,10,14,35,7.80
2010,12,10,14,36,7.70
2010,12,10,14,37,7.70
2010,12,10,14,38,7.60
2010,12,10,14,39,7.60
2010,12,10,14,40,7.60
2010,12,10,14,41,7.50
2010,12,10,14,42,7.50
2010,12,10,14,43,7.50
2010,12,10,14,44,7.50
2010,12,10,14,45,7.50
2010,12,10,14,46,7.50
2010,12,10,14,47,7.50
2010,12,10,14,48,7.40
2010,12,10,14,49,7.20
2010,12,10,14,50,7.20
2010,12,10,14,51,7.20
2010,12,10,14,52,7.10
2010,12,10,14,53,7.10
2010,12,10,14,54,7.00
2010,12,10,14,55,7.00
2010,12,10,14,56,7.00
2010,12,10,14,57,7.00
2010,12,10,14,58,6.90
2010,12,10,14,59,6.90
2010,12,10,15,00,6.90
2010,12,10,15,01,6.90
2010,12,10,15,02,6.90
2010,12,10,15,03,6.90
2010,12,10,15,04,6.80
2010,12,10,15,05,6.80
2010,12,10,15,06,6.80
2010,12,10,15,07,6.80
2010,12,10,15,08,6.80
2010,12,10,15,09,6.80
2010,12,10,15,10,6.70
2010,12,10,15,11,6.70
2010,12,10,15,12,6.70
2010,12,10,15,13,6.70
2010,12,10,15,14,6.70
2010,12,10,15,15,6.70
2010,12,10,15,16,6.60
2010,12,10,15,17,6.60
2010,12,10,15,18,6.60
2010,12,10,15,19,6.60
2010,12,10,15,20,6.60
2010,12,10,15,21,6.60
2010,12,10,15,22,6.60
2010,12,10,15,23,6.60
2010,12,10,15,24,6.60
2010,12,10,15,25,6.60
2010,12,10,15,26,6.60
2010,12,10,15,27,6.60
2010,12,10,15,28,6.60
2010,12,10,15,29,6.60
2010,12,10,15,30,6.60
2010,12,10,15,31,6.60
2010,12,10,15,32,6.60
2010,12,10,15,33,6.60
2010,12,10,15,34,6.60
2010,12,10,15,35,6.60
2010,12,10,15,36,6.60
2010,12,10,15,37,6.60
2010,12,10,15,38,6.60
2010,12,10,15,39,6.60
2010,12,10,15,40,6.60
2010,12,10,15,41,6.60
2010,12,10,15,42,6.60
2010,12,10,15,43,6.60
2010,12,10,15,44,6.50
2010,12,10,15,45,6.40
2010,12,10,15,46,6.40
2010,12,10,15,47,6.40
2010,12,10,15,48,6.40
2010,12,10,15,49,6.40
2010,12,10,15,50,6.40
2010,12,10,15,51,6.40
2010,12,10,15,52,6.40
2010,12,10,15,53,6.40
2010,12,10,15,54,6.40
2010,12,10,15,55,6.40
2010,12,10,15,56,6.40
2010,12,10,15,57,6.40
2010,12,10,15,58,6.40
2010,12,10,15,59,6.40
2010,12,10,16,00,6.40
2010,12,10,16,01,6.30
2010,12,10,16,02,6.30
2010,12,10,16,03,6.30
2010,12,10,16,04,6.30
2010,12,10,16,05,6.30
2010,12,10,16,06,6.30
2010,12,10,16,07,6.30
2010,12,10,16,08,6.20
2010,12,10,16,09,6.20
2010,12,10,16,10,6.20
2010,12,10,16,11,6.20
2010,12,10,16,12,6.20
2010,12,10,16,13,6.20
2010,12,10,16,14,6.20
2010,12,10,16,15,6.20
2010,12,10,16,16,6.20
2010,12,10,16,17,6.20
2010,12,10,16,18,6.10
2010,12,10,16,19,6.10
2010,12,10,16,20,6.10
2010,12,10,16,21,6.10
2010,12,10,16,22,6.00
2010,12,10,16,23,6.00
2010,12,10,16,24,6.00
2010,12,10,16,25,6.00
2010,12,10,16,26,5.90
2010,12,10,16,27,5.90
2010,12,10,16,28,5.90
2010,12,10,16,29,5.80
2010,12,10,16,30,5.80
2010,12,10,16,31,5.80
2010,12,10,16,32,5.80
2010,12,10,16,33,5.70
2010,12,10,16,34,5.70
2010,12,10,16,35,5.70
2010,12,10,16,36,5.70
2010,12,10,16,37,5.70
2010,12,10,16,38,5.70
2010,12,10,16,39,5.70
2010,12,10,16,40,5.70
2010,12,10,16,41,5.70
2010,12,10,16,42,5.60
2010,12,10,16,43,5.60
2010,12,10,16,44,5.60
2010,12,10,16,45,5.50
2010,12,10,16,46,5.50
2010,12,10,16,47,5.50
2010,12,10,16,48,5.50
2010,12,10,16,49,5.50
2010,12,10,16,50,5.50
2010,12,10,16,51,5.50
2010,12,10,16,52,5.50
2010,12,10,16,53,5.50
2010,12,10,16,54,5.50
2010,12,10,16,55,5.50
2010,12,10,16,56,5.50
2010,12,10,16,57,5.50
2010,12,10,16,58,5.50
2010,12,10,16,59,5.50
2010,12,10,17,00,5.50
2010,12,10,17,01,5.50
2010,12,10,17,02,5.50
2010,12,10,17,03,5.40
2010,12,10,17,04,5.40
2010,12,10,17,05,5.40
2010,12,10,17,06,5.40
2010,12,10,17,07,5.30
2010,12,10,17,08,5.30
2010,12,10,17,09,5.40
2010,12,10,17,10,5.40
2010,12,10,17,11,5.40
2010,12,10,17,12,5.40
2010,12,10,17,13,5.40
2010,12,10,17,14,5.30
2010,12,10,17,15,5.30
2010,12,10,17,16,5.30
2010,12,10,17,17,5.30
2010,12,10,17,18,5.30
2010,12,10,17,19,5.30
2010,12,10,17,20,5.30
2010,12,10,17,21,5.30
2010,12,10,17,22,5.30
2010,12,10,17,23,5.30
2010,12,10,17,24,5.30
2010,12,10,17,25,5.30
2010,12,10,17,26,5.30
2010,12,10,17,27,5.30
2010,12,10,17,28,5.30
2010,12,10,17,29,5.30
2010,12,10,17,30,5.30
2010,12,10,17,31,5.30
2010,12,10,17,32,5.30
2010,12,10,17,33,5.30
2010,12,10,17,34,5.30
2010,12,10,17,35,5.30
2010,12,10,17,36,5.30
2010,12,10,17,37,5.30
2010,12,10,17,38,5.30
2010,12,10,17,39,5.30
2010,12,10,17,40,5.30
2010,12,10,17,41,5.30
2010,12,10,17,42,5.30
2010,12,10,17,43,5.30
2010,12,10,17,44,5.30
2010,12,10,17,45,5.30
2010,12,10,17,46,5.30
2010,12,10,17,47,5.30
2010,12,10,17,48,5.30
2010,12,10,17,49,5.30
2010,12,10,17,50,5.20
2010,12,10,17,51,5.20
2010,12,10,17,52,5.20
2010,12,10,17,53,5.20
2010,12,10,17,54,5.10
2010,12,10,17,55,5.10
2010,12,10,17,56,5.10
2010,12,10,17,57,5.10
2010,12,10,17,58,5.10
2010,12,10,17,59,5.10
2010,12,10,18,00,5.10
2010,12,10,18,01,5.10
2010,12,10,18,02,5.10
2010,12,10,18,03,5.10
2010,12,10,18,04,5.10
2010,12,10,18,05,5.10
2010,12,10,18,06,5.10
2010,12,10,18,07,5.10
2010,12,10,18,08,5.10
2010,12,10,18,09,5.10
2010,12,10,18,10,5.10
2010,12,10,18,11,5.10
2010,12,10,18,12,5.10
2010,12,10,18,13,5.00
2010,12,10,18,14,4.90
2010,12,10,18,15,4.90
2010,12,10,18,16,4.90
2010,12,10,18,17,4.90
2010,12,10,18,18,4.90
2010,12,10,18,19,4.90
2010,12,10,18,20,4.90
2010,12,10,18,21,5.00
2010,12,10,18,22,4.90
2010,12,10,18,23,4.90
2010,12,10,18,24,4.90
2010,12,10,18,25,4.90
2010,12,10,18,26,4.90
2010,12,10,18,27,4.90
2010,12,10,18,28,4.90
2010,12,10,18,29,4.90
2010,12,10,18,30,4.90
2010,12,10,18,31,4.90
2010,12,10,18,32,4.90
2010,12,10,18,33,4.90
2010,12,10,18,34,4.90
2010,12,10,18,35,4.90
2010,12,10,18,36,4.90
2010,12,10,18,37,4.90
2010,12,10,18,38,4.90
2010,12,10,18,39,4.90
2010,12,10,18,40,4.90
2010,12,10,18,41,4.90
2010,12,10,18,42,4.90
2010,12,10,18,43,4.80
2010,12,10,18,44,4.80
2010,12,10,18,45,4.80
2010,12,10,18,46,4.80
2010,12,10,18,47,4.80
2010,12,10,18,48,4.80
2010,12,10,18,49,4.80
2010,12,10,18,50,4.80
2010,12,10,18,51,4.90
2010,12,10,18,52,4.90
2010,12,10,18,53,4.90
2010,12,10,18,54,4.90
2010,12,10,18,55,4.90
2010,12,10,18,56,4.90
2010,12,10,18,57,4.90
2010,12,10,18,58,4.90
2010,12,10,18,59,4.90
2010,12,10,19,00,4.90
2010,12,10,19,01,4.90
2010,12,10,19,02,4.90
2010,12,10,19,03,4.90
2010,12,10,19,04,4.80
2010,12,10,19,05,4.80
2010,12,10,19,06,4.80
2010,12,10,19,07,4.90
2010,12,10,19,08,4.90
2010,12,10,19,09,4.90
2010,12,10,19,10,4.90
2010,12,10,19,11,5.00
2010,12,10,19,12,5.10
2010,12,10,19,13,5.10
2010,12,10,19,14,5.10
2010,12,10,19,15,5.10
2010,12,10,19,16,5.10
2010,12,10,19,17,5.10
2010,12,10,19,18,5.10
2010,12,10,19,19,5.20
2010,12,10,19,20,5.20
2010,12,10,19,21,5.20
2010,12,10,19,22,5.20
2010,12,10,19,23,5.20
2010,12,10,19,24,5.20
2010,12,10,19,25,5.20
2010,12,10,19,26,5.20
2010,12,10,19,27,5.20
2010,12,10,19,28,5.20
2010,12,10,19,29,5.20
2010,12,10,19,30,5.20
2010,12,10,19,31,5.20
2010,12,10,19,32,5.30
2010,12,10,19,33,5.30
2010,12,10,19,34,5.30
2010,12,10,19,35,5.30
2010,12,10,19,36,5.30
2010,12,10,19,37,5.30
2010,12,10,19,38,5.30
2010,12,10,19,39,5.30
2010,12,10,19,40,5.30
2010,12,10,19,41,5.30
2010,12,10,19,42,5.30
2010,12,10,19,43,5.30
2010,12,10,19,44,5.30
2010,12,10,19,45,5.30
2010,12,10,19,46,5.30
2010,12,10,19,47,5.30
2010,12,10,19,48,5.30
2010,12,10,19,49,5.30
2010,12,10,19,50,5.30
2010,12,10,19,51,5.30
2010,12,10,19,52,5.30
2010,12,10,19,53,5.30
2010,12,10,19,54,5.30
2010,12,10,19,55,5.30
2010,12,10,19,56,5.30
2010,12,10,19,57,5.30
2010,12,10,19,58,5.30
2010,12,10,19,59,5.30
2010,12,10,20,00,5.30
2010,12,10,20,01,5.30
2010,12,10,20,02,5.30
2010,12,10,20,03,5.30
2010,12,10,20,04,5.30
2010,12,10,20,05,5.30
2010,12,10,20,06,5.30
2010,12,10,20,07,5.30
2010,12,10,20,08,5.30
2010,12,10,20,09,5.30
2010,12,10,20,10,5.30
2010,12,10,20,11,5.30
2010,12,10,20,12,5.30
2010,12,10,20,13,5.30
2010,12,10,20,14,5.30
2010,12,10,20,15,5.30
2010,12,10,20,16,5.30
2010,12,10,20,17,5.30
2010,12,10,20,18,5.30
2010,12,10,20,19,5.30
2010,12,10,20,20,5.30
2010,12,10,20,21,5.30
2010,12,10,20,22,5.30
2010,12,10,20,23,5.30
2010,12,10,20,24,5.30
2010,12,10,20,25,5.30
2010,12,10,20,26,5.20
2010,12,10,20,27,5.20
2010,12,10,20,28,5.20
2010,12,10,20,29,5.20
2010,12,10,20,30,5.20
2010,12,10,20,31,5.20
2010,12,10,20,32,5.10
2010,12,10,20,33,5.10
2010,12,10,20,34,5.10
2010,12,10,20,35,5.10
2010,12,10,20,36,5.10
2010,12,10,20,37,5.10
2010,12,10,20,38,5.10
2010,12,10,20,39,5.10
2010,12,10,20,40,5.10
2010,12,10,20,41,5.10
2010,12,10,20,42,5.10
2010,12,10,20,43,5.10
2010,12,10,20,44,5.00
2010,12,10,20,45,5.00
2010,12,10,20,46,5.10
2010,12,10,20,47,5.10
2010,12,10,20,48,5.10
2010,12,10,20,49,5.10
2010,12,10,20,50,5.10
2010,12,10,20,51,5.10
2010,12,10,20,52,5.10
2010,12,10,20,53,5.10
2010,12,10,20,54,5.10
2010,12,10,20,55,5.10
2010,12,10,20,56,5.10
2010,12,10,20,57,5.10
2010,12,10,20,58,5.10
2010,12,10,20,59,5.10
2010,12,10,21,00,5.10
2010,12,10,21,01,5.10
2010,12,10,21,02,5.10
2010,12,10,21,03,5.10
2010,12,10,21,04,5.10
2010,12,10,21,05,5.10
2010,12,10,21,06,5.10
2010,12,10,21,07,5.10
2010,12,10,21,08,5.10
2010,12,10,21,09,5.10
2010,12,10,21,10,5.10
2010,12,10,21,11,5.10
2010,12,10,21,12,5.10
2010,12,10,21,13,5.10
2010,12,10,21,14,5.10
2010,12,10,21,15,5.10
2010,12,10,21,16,5.10
2010,12,10,21,17,5.10
2010,12,10,21,18,5.10
2010,12,10,21,19,5.10
2010,12,10,21,20,5.10
2010,12,10,21,21,5.10
2010,12,10,21,22,5.10
2010,12,10,21,23,5.10
2010,12,10,21,24,5.10
2010,12,10,21,25,5.10
2010,12,10,21,26,5.10
2010,12,10,21,27,5.10
2010,12,10,21,28,5.10
2010,12,10,21,29,5.10
2010,12,10,21,30,5.10
2010,12,10,21,31,5.20
2010,12,10,21,32,5.20
2010,12,10,21,33,5.20
2010,12,10,21,34,5.20
2010,12,10,21,35,5.20
2010,12,10,21,36,5.10
2010,12,10,21,37,5.10
2010,12,10,21,38,5.10
2010,12,10,21,39,5.10
2010,12,10,21,40,5.10
2010,12,10,21,41,5.10
2010,12,10,21,42,5.10
2010,12,10,21,43,5.10
2010,12,10,21,44,5.10
2010,12,10,21,45,5.10
2010,12,10,21,46,5.10
2010,12,10,21,47,5.10
2010,12,10,21,48,5.10
2010,12,10,21,49,5.10
2010,12,10,21,50,5.10
2010,12,10,21,51,5.10
2010,12,10,21,52,5.20
2010,12,10,21,53,5.20
2010,12,10,21,54,5.20
2010,12,10,21,55,5.10
2010,12,10,21,56,5.10
2010,12,10,21,57,5.10
2010,12,10,21,58,5.10
2010,12,10,21,59,5.10
2010,12,10,22,00,5.10
2010,12,10,22,01,5.10
2010,12,10,22,02,5.10
2010,12,10,22,03,5.10
2010,12,10,22,04,5.10
2010,12,10,22,05,5.10
2010,12,10,22,06,5.10
2010,12,10,22,07,5.10
2010,12,10,22,08,5.10
2010,12,10,22,09,5.10
2010,12,10,22,10,5.10
2010,12,10,22,11,5.10
2010,12,10,22,12,5.10
2010,12,10,22,13,5.10
2010,12,10,22,14,5.10
2010,12,10,22,15,5.10
2010,12,10,22,16,5.10
2010,12,10,22,17,5.10
2010,12,10,22,18,5.10
2010,12,10,22,19,5.10
2010,12,10,22,20,5.10
2010,12,10,22,21,5.10
2010,12,10,22,22,5.10
2010,12,10,22,23,5.10
2010,12,10,22,24,5.10
2010,12,10,22,25,5.10
2010,12,10,22,26,5.10
2010,12,10,22,27,5.10
2010,12,10,22,28,5.10
2010,12,10,22,29,5.10
2010,12,10,22,30,5.00
2010,12,10,22,31,4.90
2010,12,10,22,32,4.90
2010,12,10,22,33,4.90
2010,12,10,22,34,5.00
2010,12,10,22,35,5.10
2010,12,10,22,36,5.10
2010,12,10,22,37,5.10
2010,12,10,22,38,5.10
2010,12,10,22,39,5.10
2010,12,10,22,40,5.20
2010,12,10,22,41,5.20
2010,12,10,22,42,5.20
2010,12,10,22,43,5.30
2010,12,10,22,44,5.30
2010,12,10,22,45,5.30
2010,12,10,22,46,5.20
2010,12,10,22,47,5.20
2010,12,10,22,48,5.10
2010,12,10,22,49,5.10
2010,12,10,22,50,5.10
2010,12,10,22,51,5.10
2010,12,10,22,52,5.10
2010,12,10,22,53,5.10
2010,12,10,22,54,5.10
2010,12,10,22,55,5.10
2010,12,10,22,56,5.10
2010,12,10,22,57,5.10
2010,12,10,22,58,5.20
2010,12,10,22,59,5.20
2010,12,10,23,00,5.20
2010,12,10,23,01,5.20
2010,12,10,23,02,5.20
2010,12,10,23,03,5.20
2010,12,10,23,04,5.20
2010,12,10,23,05,5.20
2010,12,10,23,06,5.20
2010,12,10,23,07,5.20
2010,12,10,23,08,5.20
2010,12,10,23,09,5.20
2010,12,10,23,10,5.20
2010,12,10,23,11,5.20
2010,12,10,23,12,5.20
2010,12,10,23,13,5.30
2010,12,10,23,14,5.20
2010,12,10,23,15,5.30
2010,12,10,23,16,5.30
2010,12,10,23,17,5.20
2010,12,10,23,18,5.20
2010,12,10,23,19,5.20
2010,12,10,23,20,5.20
2010,12,10,23,21,5.20
2010,12,10,23,22,5.20
2010,12,10,23,23,5.20
2010,12,10,23,24,5.20
2010,12,10,23,25,5.20
2010,12,10,23,26,5.20
2010,12,10,23,27,5.20
2010,12,10,23,28,5.20
2010,12,10,23,29,5.20
2010,12,10,23,30,5.20
2010,12,10,23,31,5.20
2010,12,10,23,32,5.20
2010,12,10,23,33,5.10
2010,12,10,23,34,5.10
2010,12,10,23,35,5.10
2010,12,10,23,36,5.10
2010,12,10,23,37,5.10
2010,12,10,23,38,5.10
2010,12,10,23,39,5.10
2010,12,10,23,40,5.10
2010,12,10,23,41,5.10
2010,12,10,23,42,5.10
2010,12,10,23,43,5.10
2010,12,10,23,44,5.10
2010,12,10,23,45,5.10
2010,12,10,23,46,5.10
2010,12,10,23,47,5.10
2010,12,10,23,48,5.10
2010,12,10,23,49,5.10
2010,12,10,23,50,5.10
2010,12,10,23,51,5.10
2010,12,10,23,52,5.10
2010,12,10,23,53,5.10
2010,12,10,23,54,5.10
2010,12,10,23,55,5.20
2010,12,10,23,56,5.20
2010,12,10,23,57,5.20
2010,12,10,23,58,5.20
2010,12,10,23,59,5.10
